Regional Weather Roundup
Issued by NWS

Home | Current Version | Previous Version | Graphics & Text | Print | Product List | Glossary On
Versions: 1 2 3 4 5 6 7 8 9 10 11 12 13 14 15 16 17 18 19 20 21 22 23 24 25 26 27 28 29 30 31 32 33 34 35 36 37 38 39 40 41 42 43 44 45 46 47 48 49 50
000
ASUS43 KLOT 100312
RWRIL

ILLINOIS REGIONAL WEATHER ROUNDUP
NATIONAL WEATHER SERVICE CHICAGO/ROMEOVILLE IL
900 PM CST FRI DEC 09 2016

NOTE: "FAIR" INDICATES FEW OR NO CLOUDS BELOW 12,000 FEET WITH NO
SIGNIFICANT WEATHER AND/OR OBSTRUCTIONS TO VISIBILITY.

* THESE STATIONS ARE NOT UNDER NWS QUALITY CONTROL. THEY ALSO MAY NOT
  REPORT WEATHER SUCH AS PRECIPITATION OR FOG.

ILZ001-002-007-009-015-016-024-100400-
NORTHWEST ILLINOIS

CITY           SKY/WX    TMP DP  RH WIND       PRES   REMARKS
MOLINE         PTCLDY    20  13  74 SW3       30.54F
SAVANNA*       MOCLDY    19  13  77 W3        30.53S
$$

ILZ003-004-008-010-011-017-018-100400-
NORTH CENTRAL ILLINOIS

CITY           SKY/WX    TMP DP  RH WIND       PRES   REMARKS
ROCKFORD       CLOUDY    17  11  77 W7        30.52S WCI   8
FREEPORT*      PTCLDY    15  10  81 W3        30.52S
ROCHELLE*      CLEAR     12  10  89 CALM      30.51F
DE KALB*       PTCLDY    17  11  79 W10       30.49F WCI   4
$$

ILZ005-006-012>014-019>023-100400-
NORTHEAST ILLINOIS

CITY           SKY/WX    TMP DP  RH WIND       PRES   REMARKS
CHICAGO-OHARE  MOCLDY    19  12  74 W6        30.49F WCI  11
CHICAGO-MIDWAY MOCLDY    21  12  68 W5        30.51F WCI  15
AURORA         CLEAR     12   8  84 SW5       30.51F WCI   4
LANSING*       PTCLDY    17  13  85 W3        30.52F
JOLIET*        CLEAR     16  14  92 CALM      30.53S
WAUKEGAN       CLEAR     19  12  74 CALM      30.47F
DUPAGE AIRPORT CLEAR     16  10  77 SW5       30.49F WCI   9
KANKAKEE*      CLOUDY    24  13  64 W5        30.53F WCI  18
WHEELING       PTCLDY    20  11  68 W3        30.50F
MORRIS*        CLEAR     16  12  82 CALM      30.52S
ROMEOVILLE*    PTCLDY    16  14  93 W5        30.51F WCI   9
NORTHERLY ISL    N/A     23  14  68 W7          N/A  WCI  15
$$

LMZ740>746-100400-
SOUTHERN LAKE MICHIGAN

STATION/POSITION SKY/WX   TEMP    WIND        PRES    VSBY  WAVE
                          AIR SEA DIR/SP/G                  HT/PER
                          (F)     (DEG/KT/KT) (MB)    (MI)  (FT/S)
BURNHAM HARBOR             22     280/  4/  9   N/A
CALUMET HARBOR             20     230/  4/  6 1032.4F
BURNS HARBOR               22     220/  9/ 12 1033.5S
$$

ILZ025>027-034>036-040-047-049-050-058-095>099-100400-
WEST-CENTRAL ILLINOIS

CITY           SKY/WX    TMP DP  RH WIND       PRES   REMARKS
QUINCY         CLOUDY    22  14  71 CALM      30.56F
GALESBURG*     CLOUDY    19  15  82 CALM      30.54F
MACOMB*        CLOUDY    21  16  79 W5        30.58F WCI  15
JACKSONVILLE*  CLOUDY    22  17  80 CALM      30.58S
PITTSFIELD*    CLOUDY    24  17  73 NW5       30.58S WCI  18
$$

ILZ028>032-037-038-041>044-048-051>054-059>061-100400-
CENTRAL ILLINOIS

CITY           SKY/WX    TMP DP  RH WIND       PRES   REMARKS
PONTIAC        CLOUDY    24  18  77 W7        30.55S WCI  16
BLOOMINGTON    CLOUDY    21  15  78 W6        30.54R WCI  13
DECATUR        CLOUDY    22  13  68 NW3       30.55F
PEORIA         CLOUDY    22  13  68 W6        30.56S WCI  14
LACON*         CLOUDY    22  13  68 W6        30.54F WCI  15
LINCOLN*       CLOUDY    22  15  71 W3        30.56F
SPRINGFIELD    CLOUDY    24  16  71 CALM      30.58R
TAYLORVILLE    CLOUDY    22  16  75 CALM      30.57S
$$

ILZ033-039-045-046-055>057-062-063-100400-
EAST-CENTRAL ILLINOIS

CITY           SKY/WX    TMP DP  RH WIND       PRES   REMARKS
CHAMPAIGN      CLOUDY    21  13  71 W8        30.55S WCI  11
RANTOUL*       CLOUDY    24  18  77 W9        30.54S WCI  15
MATTOON        CLOUDY    23  14  68 NW5       30.54F WCI  17
PARIS*         MOCLDY    19  17  89 W6        30.55F WCI  11
$$

ILZ079-100>102-100400-
SOUTHWEST ILLINOIS

CITY           SKY/WX    TMP DP  RH WIND       PRES   REMARKS
BELLEVILLE     CLEAR     20  14  77 CALM      30.57S
CAHOKIA*       PTCLDY    20  13  74 CALM      30.59S
SPARTA*        CLEAR     21  14  75 CALM      30.59S
$$

ILZ064>066-069>071-074>076-080>082-084>086-088>090-092>094-100400-
SOUTH-CENTRAL ILLINOIS

CITY           SKY/WX    TMP DP  RH WIND       PRES   REMARKS
CARBONDALE     CLEAR     21  16  81 CALM      30.59S
CAIRO*         CLEAR     23  18  82 CALM      30.59F
EFFINGHAM*     CLOUDY    20  19  93 CALM      30.59S
MARION         CLEAR     21  18  86 CALM      30.59F
CENTRALIA*     CLEAR     19  17  92 CALM      30.57S
SALEM*         PTCLDY    20  16  84 CALM      30.57F
METROPOLIS*    CLEAR     22  16  76 CALM      30.59F
$$

ILZ067-068-072-073-078-083-087-091-100400-
SOUTHEAST ILLINOIS

CITY           SKY/WX    TMP DP  RH WIND       PRES   REMARKS
LAWRENCEVILLE  CLOUDY    25  17  72 CALM      30.57F
FLORA*         CLEAR     24  17  75 N3        30.58S
FAIRFIELD*     CLEAR     20  18  91 CALM      30.57F
HARRISBURG*    CLEAR     22  17  80 CALM      30.60S
ROBINSON*      CLOUDY    23  19  85 CALM      30.58F
CARMI*         CLEAR     22  19  85 CALM      30.58S
$$

ABBREVIATIONS USED IN REMARKS
   TC - TEMPERATURE IN CELSIUS
  WCI - WIND CHILL INDEX
   HX - HEAT INDEX
  VSB - VISIBILITY
$$




USA.gov is the U.S. government's official web portal to all federal, state and local government web resources and services.